This is the latest recevied weather packets stored in our database for station/object K1NOT-WX. If no packets are shown the sender has not sent any weather packets the latest 10 day(s).
| Time | Temp. | Humidity | Pressure | Rain* | Wind** | Luminosity | Snow |
|---|---|---|---|---|---|---|---|
| 1777273033 | 10.56° C | 85% | 1003.4 hPa | 0 mm | - | - | - |
| 1777272133 | 10.56° C | 84% | 1003 hPa | 0 mm | - | - | - |
| 1777271233 | 11.11° C | 83% | 1003 hPa | 0 mm | - | - | - |
| 1777270333 | 11.67° C | 81% | 1003 hPa | 0 mm | - | - | - |
| 1777269433 | 11.67° C | 78% | 1002.7 hPa | 0 mm | - | - | - |
| 1777268533 | 12.22° C | 73% | 1002.7 hPa | 0 mm | - | - | - |
| 1777267633 | 12.22° C | 68% | 1002.4 hPa | 0 mm | - | - | - |
| 1777266733 | 12.22° C | 66% | 1002.4 hPa | 0 mm | - | - | - |
| 1777265833 | 13.33° C | 62% | 1002.4 hPa | 0 mm | - | - | - |
| 1777264933 | 13.33° C | 61% | 1002.4 hPa | 0 mm | - | - | - |
| 1777264033 | 13.33° C | 63% | 1002.4 hPa | 0 mm | - | - | - |
| 1777263132 | 13.33° C | 60% | 1002 hPa | 0 mm | - | - | - |
| 1777262233 | 13.33° C | 59% | 1002 hPa | 0 mm | - | - | - |
| 1777261333 | 13.89° C | 55% | 1001.7 hPa | 0 mm | - | - | - |
| 1777260432 | 15° C | 51% | 1001.4 hPa | 0 mm | - | - | - |
| 1777259532 | 15.56° C | 46% | 1001.4 hPa | 0 mm | - | - | - |
| 1777258632 | 16.11° C | 34% | 1001 hPa | 0 mm | - | - | - |
| 1777257733 | 16.67° C | 27% | 1001.4 hPa | 0 mm | - | - | - |
| 1777256832 | 17.78° C | 26% | 1001.4 hPa | 0 mm | - | - | - |
| 1777255932 | 18.33° C | 25% | 1001 hPa | 0 mm | - | - | - |
| 1777255032 | 19.44° C | 23% | 1001 hPa | 0 mm | - | - | - |
| 1777254132 | 18.33° C | 26% | 1001 hPa | 0 mm | - | - | - |
| 1777253232 | 17.78° C | 29% | 1000.7 hPa | 0 mm | - | - | - |
| 1777252332 | 18.33° C | 29% | 1001 hPa | 0 mm | - | - | - |
| 1777251432 | 18.33° C | 29% | 1001 hPa | 0 mm | - | - | - |
* Rain latest hour (hover to see other rain measurements)
** Current wind speed in m/s (hover to see current wind gust speed)